Showing default

GGSE 5, 2834

Orbit data source: Space-Track

GGSE 5, 2834 is an American payload satellite in LEO that was launched on Wed, 31 May 1967 UTC via a THOR SLV-2 AGENA D launch vehicle from the Air Force Western Test Range (AFWTR). Payload-class satellites include a variety of spacecraft equipped with specific instruments for various scientific and technological missions. These include communications satellites like Starlink; space stations such as the ISS; scientific satellites like the Hubble; Earth observation satellites from companies like Planet Labs, Umbra, and HawkEye 360; GPS; miniature CubeSats for education and research; and military/defense satellites.

Loading next visibility...
Identifier
2834, 1967-053D
Orbit
LEO
Country
Flag of USUS
Related business
Manufacturer
NRL
Mission
Spacecraft
Bus & Motor
NRL MULTI, Unknown motor
Mass
105 kg wet, 105 kg dry
Launch date (UTC)
1967-05-31 (59 years ago)
Launch vehicle
THOR SLV-2 AGENA D
Launch site
Air Force Western Test Range (AFWTR)
Object type
Payload
Rocket body
Debris
Shape & HBR
Unknown
Radar Cross Section
Medium (>0.1 m² and <1 m²)

Expand to show TLE details & history
Last TLE update: 20 hours ago

TLE from 20 hours ago
0 GGSE 5
1  2834U 67053D   26035.48744600  .00000032  00000-0  62286-4 0  9990
2  2834  69.9719  57.1934 0006878 357.6295   2.4777 13.96172118987612
Epoch: 2026-02-04T11:41Z
TLE epoch observation values (Epoch: 2026-02-04T11:41:55.334Z)
Latitude
0.00001°
Longitude
107.05953°
Altitude
904.384 km
Speed
7.403 km/s
True Right ascension
03h 48m 46s
True Declination
0° 00' 00"
Sunlit
Object was in daylight at epoch
Visualization orbit readout
Latitude
Unknown
Longitude
Unknown
Altitude
Unknown
Speed
Unknown
Apparent Right ascension
Unknown
Apparent Declination
Unknown
Sunlit
N/A
Visualization observer readout
Local Sidereal Time
10:08:46
Azimuth
Unknown
Elevation
Unknown
Doppler factor
Unknown
Orbital elements
Apogee altitude
910.136 km
Perigee altitude
900.117 km
Semi-major axis
7,283.264 km
Eccentricity
0.00069
Inclination
69.9719°
RAAN
57.1934°
Arg. of periapsis
357.6295°
True anomaly
2.48111°
Mean anomaly
2.4777°
Eccentric anomaly
2.4794°
Mean motion
3.49184 °/min
Orbital period
103.1 mins
BSTAR
0.000062286
Loading maneuver chart data...
Computing Atmospheric mass density...
Loading historical data...
Loading historical data...
Loading historical data...
Loading historical data...
Loading historical data...
Loading historical data...
Loading historical data...

Documentation

Showing up to 5 results
|